Location: Unspecified
(54.1780°N, 0.0000°E)
Time: 04:45:17
(UTC+00:00)

Tiros 1 - Pass Details

Date: 18 June 2019
Orbit: 630 x 664 km, 48.4° (Epoch: 17 August)

Event Time Altitude Azimuth Distance (km) Brightness Sun altitude
Rises 02:44:51 0° 244° (WSW) 2,929 - -4.8°
Exits shadow 02:45:43 - 242° (WSW) 2,598 9.7 -4.7°
Reaches altitude 10° 02:47:18 10° 236° (SW) 2,017 9.1 -4.6°
Maximum altitude 02:51:34 37° 169° (S) 979 7.8 -4.2°
Drops below altitude 10° 02:55:49 10° 102° (ESE) 2,011 10.1 -3.8°
Sets 02:58:16 0° 95° (E) 2,919 11.1 -3.6°
